Papa, Hungary

8:05 AM CEST on September 25, 2016 (GMT +0200)
Papa

Weather History for LHPA - September, 2013

Change the Weather History Date:

Friday, September 13, 2013

  Actual Average Record
Temperature  
Mean Temperature 53 °F -  
Max Temperature 60 °F - - ()
Min Temperature 46 °F - - ()
Degree Days  
Heating Degree Days 12    
Growing Degree Days 3 (Base 50)    
Moisture  
Dew Point 50 °F    
Average Humidity 85    
Maximum Humidity 100    
Minimum Humidity 63    
Precipitation  
Precipitation 0.00 in - - ()
Sea Level Pressure  
Sea Level Pressure 30.05 in    
Wind  
Wind Speed 6 mph ()    
Max Wind Speed 18 mph    
Max Gust Speed 27 mph    
Visibility 6.2 miles    
Events Rain    
T = Trace of Precipitation, MM = Missing Value Source: Averaged Metar Reports

Daily Weather History Graph

Daily Weather History Graph

Search for Another Location

Airport or City:

Trip Planner

Search our weather history database for the weather conditions in past years. The results will help you decide how hot, cold, wet, or windy it might be!

Date:

Astronomy

Sep. 13, 2013 Rise Set
Actual Time 6:24 AM CEST 7:06 PM CEST
Civil Twilight 5:53 AM CEST 7:37 PM CEST
Nautical Twilight 5:16 AM CEST 8:13 PM CEST
Astronomical Twilight 4:38 AM CEST 8:52 PM CEST
Moon 2:57 PM CEST (9/13) No Moon Set
Length of Visible Light 13h 43m
Length of Day
12h 41m
First Quarter, 58% of the Moon is Illuminated
Sep 13
First Quarter
Sep 19
Full
Sep 27
Last Quarter
Oct 5
New
Oct 12
First Quarter

Hourly Weather History & Observations

Time (CEST) Temp. Windchill Dew Point Humidity Pressure Visibility Wind Dir Wind Speed Gust Speed Precip Events Conditions
12:15 AM 53.6 °F - 53.6 °F 100% 30.01 in - WNW 4.5 mph - N/A   Clear
12:45 AM 53.6 °F - 51.8 °F 94% 30.01 in - West 2.2 mph - N/A   Clear
1:15 AM 53.6 °F - 53.6 °F 100% 30.01 in - Calm Calm - N/A   Clear
1:45 AM 53.6 °F - 51.8 °F 94% 30.01 in - NNW 4.5 mph - N/A   Clear
2:15 AM 53.6 °F - 50.0 °F 88% 30.01 in - North 4.5 mph - N/A   Clear
2:45 AM 51.8 °F - 50.0 °F 94% 30.01 in - Calm Calm - N/A   Clear
3:15 AM 50.0 °F - 50.0 °F 100% 30.01 in - NNE 2.2 mph - N/A   Clear
3:45 AM 50.0 °F - 48.2 °F 94% 30.01 in - Calm Calm - N/A   Clear
4:15 AM 48.2 °F - 46.4 °F 93% 30.01 in - NW 4.5 mph - N/A   Clear
4:45 AM 48.2 °F - 46.4 °F 93% 30.01 in - West 4.5 mph - N/A   Clear
5:15 AM 50.0 °F - 46.4 °F 87% 30.01 in - West 4.5 mph - N/A   Clear
5:45 AM 48.2 °F - 46.4 °F 93% 30.01 in - West 4.5 mph - N/A   Clear
6:15 AM 46.4 °F 44.4 °F 46.4 °F 100% 30.04 in - WSW 4.5 mph - N/A   Clear
6:45 AM 46.4 °F - 44.6 °F 93% 30.04 in - Calm Calm - N/A   Clear
7:15 AM 48.2 °F - 46.4 °F 93% 30.04 in - South 2.2 mph - N/A   Clear
7:45 AM 50.0 °F - 48.2 °F 94% 30.04 in - WSW 4.5 mph - N/A   Clear
8:15 AM 51.8 °F - 48.2 °F 88% 30.04 in - WSW 4.5 mph - N/A   Clear
8:45 AM 53.6 °F - 48.2 °F 82% 30.06 in 6.2 mi SW 4.5 mph - N/A   Mostly Cloudy
9:15 AM 55.4 °F - 50.0 °F 82% 30.06 in 6.2 mi West 4.5 mph - N/A   Scattered Clouds
9:45 AM 57.2 °F - 50.0 °F 77% 30.06 in 6.2 mi West 6.7 mph - N/A   Scattered Clouds
10:15 AM 57.2 °F - 50.0 °F 77% 30.06 in 6.2 mi WNW 6.7 mph - N/A   Scattered Clouds
10:45 AM 59.0 °F - 48.2 °F 67% 30.06 in 6.2 mi NW 13.4 mph - N/A   Scattered Clouds
11:15 AM 59.0 °F - 48.2 °F 67% 30.06 in 6.2 mi WNW 13.4 mph - N/A   Scattered Clouds
11:45 AM 59.0 °F - 46.4 °F 63% 30.06 in 6.2 mi WNW 13.4 mph - N/A   Scattered Clouds
12:15 PM 59.0 °F - 48.2 °F 67% 30.06 in 6.2 mi WNW 15.7 mph - N/A   Scattered Clouds
12:45 PM 60.8 °F - 48.2 °F 63% 30.06 in 6.2 mi WNW 13.4 mph - N/A   Scattered Clouds
1:15 PM 57.2 °F - 50.0 °F 77% 30.06 in 6.2 mi NW 17.9 mph - N/A Rain Light Rain Showers
1:40 PM 59.0 °F - 53.6 °F 82% 30.06 in 6.2 mi NW 8.9 mph - N/A   Scattered Clouds
1:45 PM 59.0 °F - 51.8 °F 77% 30.06 in 6.2 mi WNW 13.4 mph - N/A   Scattered Clouds
2:15 PM 59.0 °F - 50.0 °F 72% 30.06 in 6.2 mi WNW 17.9 mph - N/A   Scattered Clouds
2:45 PM 59.0 °F - 50.0 °F 72% 30.06 in 6.2 mi WNW 15.7 mph - N/A   Scattered Clouds
3:06 PM 57.2 °F - 48.2 °F 72% 30.06 in 6.2 mi NW 17.9 mph - N/A Rain Light Rain Showers
3:15 PM 57.2 °F - 50.0 °F 77% 30.06 in 6.2 mi NW 15.7 mph - N/A Rain Light Rain Showers
3:40 PM 57.2 °F - 50.0 °F 77% 30.06 in 6.2 mi WNW 13.4 mph - N/A   Scattered Clouds
3:45 PM 57.2 °F - 50.0 °F 77% 30.06 in 6.2 mi WNW 11.2 mph - N/A   Scattered Clouds
4:15 PM 60.8 °F - 51.8 °F 72% 30.04 in 6.2 mi WNW 15.7 mph - N/A   Scattered Clouds
4:45 PM 59.0 °F - 50.0 °F 72% 30.06 in 6.2 mi NW 17.9 mph - N/A   Scattered Clouds
5:15 PM 59.0 °F - 51.8 °F 77% 30.06 in 6.2 mi WNW 11.2 mph - N/A   Scattered Clouds
5:45 PM 59.0 °F - 51.8 °F 77% 30.06 in 6.2 mi NW 11.2 mph - N/A   Scattered Clouds
6:15 PM 57.2 °F - 51.8 °F 82% 30.06 in 6.2 mi WNW 6.7 mph - N/A   Scattered Clouds
6:29 PM 59.0 °F - 51.8 °F 77% 30.06 in 6.2 mi NW 11.2 mph 22.4 mph N/A Rain Light Rain Showers
6:34 PM 57.2 °F - 50.0 °F 77% 30.06 in 6.2 mi NW 15.7 mph 26.8 mph N/A Rain Light Rain Showers
6:45 PM 55.4 °F - 51.8 °F 88% 30.06 in 6.2 mi NW 15.7 mph 26.8 mph N/A Rain Light Rain Showers
7:15 PM 53.6 °F - 51.8 °F 94% 30.06 in 6.2 mi NW 6.7 mph - N/A Rain Rain Showers
7:26 PM 53.6 °F - 51.8 °F 94% 30.06 in 6.2 mi WNW 4.5 mph - N/A   Mostly Cloudy
7:45 PM 53.6 °F - 51.8 °F 94% 30.06 in 6.2 mi WNW 4.5 mph - N/A   Mostly Cloudy
8:15 PM 53.6 °F - 51.8 °F 94% 30.06 in 6.2 mi WNW 4.5 mph - N/A   Mostly Cloudy
8:45 PM 55.4 °F - 51.8 °F 88% 30.06 in 6.2 mi WNW 13.4 mph - N/A   Mostly Cloudy
9:15 PM 55.4 °F - 51.8 °F 88% 30.06 in 6.2 mi WNW 8.9 mph - N/A   Mostly Cloudy
9:45 PM 55.4 °F - 51.8 °F 88% 30.06 in - WNW 6.7 mph - N/A   Clear
10:15 PM 53.6 °F - 51.8 °F 94% 30.06 in 6.2 mi NW 6.7 mph - N/A   Mostly Cloudy
10:45 PM 53.6 °F - 51.8 °F 94% 30.06 in 6.2 mi WNW 6.7 mph - N/A   Mostly Cloudy
11:15 PM 53.6 °F - 51.8 °F 94% 30.06 in 6.2 mi West 6.7 mph - N/A   Mostly Cloudy
11:45 PM 53.6 °F - 51.8 °F 94% 30.06 in 6.2 mi West 4.5 mph - N/A   Overcast